Weather in Ventspils

Latvia     57°23′47″N   21°34′01″E
temp.,
°C
wind,
m/s
gust,
m/s
humid.,
%
clouds,
%
prec.,
mm/h
press.,
hPa
HPBL,
m
25 february, thu
thu2523:00+4wsw101693100 0.0 1019196
02:00+4wsw101594100 0.0 1020183
05:00+4wsw9149493 0.0 1018190
08:00+5wsw9149196 0.0 1019180
11:00+4wsw91493100 0.0 1018185
14:00+5wsw12189199 0.0 1018201
17:00+5sw111790100 0.0 1016224
20:00+4sw10169598 0.0 1015235
26 february, fri
fri2623:00+5wsw12189296 0.0 1013244
02:00+5w12208798 0.0 1012325
05:00+4w12208133 0.0 1012481
08:00+4wsw11178617 0.0 1012365
11:00+4wsw10158781 0.0 1011292
14:00+4wsw10158790 0.0 1012248
17:00+4wnw10148512 0.0 1011266
20:00+4wnw1015837 0.0 1012236
27 february, sat
sat2723:00+3nw11178450 0.0 1013365
02:00+3nnw12188425 0.0 1016435
05:00+3nnw1217850 0.0 1018453
08:00+2nnw1116850 0.0 1021387
11:00+2nnw1015840 0.0 1023446
14:00+2nnw1014840 0.0 1025394
17:00+2nnw1014860 0.0 1026394
20:00+2n712850 0.0 1028330
28 february, sun
sun2823:00+2nnw578746 0.0 1028213
02:00+2nw688673 0.0 1030188
05:00+3nw5785100 0.0 1028112
08:00+3wnw5692100 0.0 102988
11:00+3wnw71093100 0.1 1029210
14:00+3nw7118559 0.1 1028228
17:00+3wnw67867 0.0 1028115
20:00+3nw798548 0.0 1029129
1 march, mon
mon123:00+3nnw568516 0.0 103070
02:00+4nw56858 0.0 103045
05:00+3nw34840 0.0 103122
08:00+4wnw45830 0.0 103124
11:00+4w45810 0.0 103147
14:00+4sw67813 0.0 103196
17:00+4sw913840 0.0 1030191
20:00+3sw1015854 0.0 1029287